RH
81 82 78 74 73 75 78 75 71 68 66 65 62 67 65 72 72 70 64 66 61 65 70 71 75 74 74 74 75 75 74 70 72 65 56 48 44 48 48 47 49 53 56
86 89 85 82 80 78 78 78 73 71 70 66 65 68 70 71 69 69 62 60 60 64 74 77 76 76 76 77 76 76 76 78 77 75 75 86 54 46 56 53 58 58 55
86 88 91 92 86 86 82 76 76 77 73 72 71 76 76 73 72 70 64 61 67 73 80 79 77 72 74 76 78 78 77 80 81 79 74 85 87 83 63 56 59 48 41
79 80 86 95 94 89 81 77 77 81 78 77 78 77 76 80 78 73 68 69 76 84 82 80 75 75 77 78 78 82 80 78 82 86 86 87 86 92 93 64 49 65 36
75 77 80 84 91 88 84 82 78 80 82 81 79 78 76 76 75 76 74 84 88 86 82 79 76 77 78 76 79 82 81 80 79 72 72 71 81 86 85 95 82 74 60
81 78 76 77 84 88 88 86 84 80 83 83 81 78 77 81 84 87 89 91 89 86 84 80 80 79 78 72 71 73 78 80 78 83 87 86 88 93 93 95 90 85 60
80 87 90 90 88 87 90 92 88 84 82 83 81 79 78 80 82 87 91 91 89 88 85 84 80 77 64 65 69 68 68 70 61 62 69 77 72 67 70 78 86 90 40
79 84 88 90 86 81 84 91 92 89 86 86 81 78 77 78 74 75 86 87 87 86 84 81 74 63 54 42 45 41 35 37 38 38 39 43 44 46 49 61 80 92 82
83 83 87 85 83 80 77 86 91 93 89 88 88 82 82 81 74 78 89 89 87 83 77 69 56 34 28 29 24 21 24 23 25 31 36 40 48 53 60 65 73 89 94
81 90 90 86 82 80 78 82 94 99 95 92 89 82 85 84 82 86 92 89 82 72 61 42 28 24 22 25 21 18 21 22 29 36 41 47 53 56 62 64 76 85 92
78 86 93 91 87 88 92 95 100 100 100 100 96 91 93 92 92 94 93 86 73 57 37 26 21 21 22 26 18 19 20 23 29 34 40 47 49 54 60 66 78 84 91
91 93 94 96 97 98 99 96 98 100 100 100 99 98 98 97 96 93 85 69 51 36 32 26 20 23 27 24 18 20 21 23 28 34 36 40 43 51 54 63 78 89 91
99 99 96 94 92 96 94 92 94 97 99 99 100 97 96 92 90 83 64 44 43 34 31 24 21 31 31 28 26 26 26 29 32 35 38 46 49 50 57 66 80 88 88
96 95 93 87 79 83 86 86 84 87 92 94 97 95 94 89 81 67 65 63 49 35 29 28 30 37 35 34 32 31 33 34 38 39 38 41 48 53 63 79 84 88 94
96 92 91 84 73 68 72 75 77 81 89 91 92 91 90 79 66 59 51 53 42 31 30 32 43 38 44 43 37 37 41 41 40 35 27 26 35 52 79 91 84 90 95
92 90 85 78 66 63 65 70 74 78 84 86 87 86 79 68 54 42 38 37 33 33 36 32 32 49 51 51 58 57 50 45 40 32 26 34 42 49 46 52 88 89 90
88 86 80 72 64 62 65 69 71 77 83 84 79 78 69 55 47 42 40 40 38 33 30 32 32 39 44 56 68 67 55 45 35 36 46 46 45 43 49 75 86 82 89
81 80 72 67 61 63 66 68 68 69 71 67 62 58 48 44 42 40 38 37 34 31 32 34 36 36 54 65 74 62 44 34 40 50 53 50 44 49 84 86 84 84 85
74 74 68 63 63 68 67 64 67 66 64 60 54 46 39 40 39 37 36 34 33 35 36 36 38 34 42 52 60 57 44 45 47 52 53 55 61 70 86 86 85 88 82
69 72 68 67 69 70 66 67 69 64 61 54 48 42 38 34 34 33 36 38 35 37 35 34 37 32 29 58 76 76 64 60 69 69 60 57 79 88 88 85 84 89 78
68 68 68 68 72 70 66 68 65 63 56 46 44 41 35 32 32 35 36 35 32 29 27 28 32 34 40 44 74 84 81 83 83 80 75 68 84 89 84 83 84 82 76
69 67 67 73 72 67 62 65 65 58 48 45 42 39 36 35 35 34 34 28 24 24 31 38 45 45 43 48 66 84 85 83 85 82 79 84 85 84 85 88 90 89 89
66 67 74 74 71 66 60 66 68 52 47 42 42 40 38 38 36 31 29 28 28 33 44 54 53 54 52 61 65 81 85 84 83 83 87 86 88 88 88 93 90 90 86
71 74 73 72 71 63 61 54 53 46 43 45 44 43 41 42 37 31 30 32 38 51 62 66 68 62 63 68 78 82 80 80 82 85 78 81 88 90 94 94 97 99 100
74 72 71 70 71 67 64 56 49 43 48 50 50 48 52 39 39 40 40 42 67 60 63 71 67 68 75 77 83 83 82 83 85 81 60 58 80 94 94 94 96 98 95
70 69 68 68 68 65 62 54 46 41 48 54 53 47 40 42 48 60 80 81 75 76 79 78 77 77 80 84 85 84 85 85 80 65 64 78 87 97 100 99 98 99 97
Wind_Speed
13 20 29 34 34 36 36 34 32 30 29 27 24 23 21 20 19 15 14 13 11 10 10 8 5 3 1 0 2 3 4 6 12 7 5 5 7 16 12 10 9 8 11
7 15 25 31 34 37 38 35 34 33 31 30 27 24 22 20 19 17 16 13 12 11 11 8 5 3 1 0 1 3 3 6 12 7 4 4 1 4 7 6 6 12 14
14 10 18 27 31 33 37 38 36 35 33 31 29 22 22 20 20 20 18 16 15 12 10 8 6 3 2 0 2 3 4 6 8 12 6 2 1 8 5 2 7 17 18
8 9 16 21 28 33 38 37 35 39 35 33 31 29 26 22 19 21 18 19 16 13 11 9 7 5 2 1 2 3 4 4 5 3 7 5 2 1 4 5 16 8 29
14 13 17 26 31 35 38 36 35 40 35 34 32 29 27 25 23 22 22 19 16 13 12 10 8 6 3 2 2 2 3 4 6 7 5 5 4 4 2 4 5 22 6
10 8 16 25 29 33 34 34 34 37 36 36 33 31 29 26 24 24 23 20 17 15 13 11 9 6 3 3 4 5 5 6 7 6 5 5 2 3 3 3 8 15 11
10 10 11 16 22 26 30 34 34 35 37 37 36 33 31 29 28 27 25 22 19 17 15 12 10 8 6 6 6 6 7 6 6 6 6 5 4 2 3 5 6 6 16
9 11 12 17 24 25 24 30 36 33 36 37 37 36 33 32 31 29 28 25 22 19 16 14 11 10 9 9 8 7 7 6 6 5 4 3 4 5 5 3 4 3 4
13 14 13 22 23 25 24 24 31 34 35 35 34 36 34 33 33 30 28 26 23 20 17 14 13 12 10 9 9 9 7 5 5 5 4 4 4 5 5 5 3 0 3
13 11 12 19 24 22 22 21 21 31 34 35 37 36 34 31 30 31 30 27 24 21 19 16 13 12 13 10 8 9 8 5 5 4 4 4 5 6 6 7 7 5 6
15 13 11 18 21 18 18 19 20 23 27 33 35 35 33 32 31 31 30 29 26 23 19 16 14 12 11 10 8 8 8 5 5 4 5 6 7 7 8 10 11 11 9
7 8 13 18 20 20 19 21 22 24 26 30 33 33 33 32 31 31 31 29 28 22 20 16 16 11 12 9 8 7 8 6 6 7 7 8 10 10 12 13 14 14 14
9 8 9 12 16 20 20 20 22 24 27 29 32 32 31 31 33 33 31 28 24 24 18 16 15 14 10 8 7 6 7 6 6 7 9 10 12 14 15 16 16 18 21
12 10 9 11 17 22 24 23 22 24 27 28 29 31 30 30 32 31 29 24 22 22 21 16 16 14 11 8 7 5 5 5 6 7 9 10 12 14 15 16 19 21 24
14 15 14 11 16 20 22 23 25 25 27 28 28 29 30 31 30 29 28 25 23 22 19 19 17 13 10 7 5 4 3 5 6 8 10 12 13 13 13 16 21 22 24
15 14 13 14 19 21 21 23 24 26 28 28 29 30 31 31 30 30 28 27 24 22 20 17 15 13 9 6 4 3 4 6 9 13 15 16 16 16 18 19 16 17 21
16 17 16 17 22 23 25 24 27 27 28 30 30 32 33 32 30 30 29 27 25 22 19 16 14 11 8 6 5 3 5 8 11 13 15 17 18 21 22 21 21 22 20
16 15 16 22 24 26 26 27 27 28 29 30 32 34 34 34 32 30 28 25 23 20 18 15 12 10 8 6 4 3 6 8 9 10 13 17 21 21 20 24 27 29 28
14 20 24 26 29 29 33 33 29 29 31 30 33 34 34 33 31 29 27 24 22 19 16 14 11 8 7 3 2 5 7 8 10 13 16 18 20 20 21 24 30 30 27
23 27 28 31 30 30 36 33 29 30 29 33 34 34 33 33 31 28 26 22 20 18 14 12 9 6 4 3 3 5 8 10 13 17 19 19 18 19 21 25 29 27 29
22 26 31 29 30 34 34 29 29 26 33 36 33 31 30 30 28 26 23 22 19 16 13 11 7 4 3 3 5 7 9 11 16 19 23 24 21 21 24 23 26 26 30
26 30 27 25 28 33 36 30 27 34 36 36 34 32 30 28 26 25 22 18 16 14 11 9 6 4 4 5 6 7 9 11 15 19 22 21 22 22 23 24 21 25 27
25 27 29 28 27 30 35 31 31 39 38 36 34 31 28 26 23 23 20 17 13 11 9 6 5 4 6 6 7 10 11 12 15 18 18 21 19 20 21 19 21 21 23
22 28 31 28 26 30 33 41 41 41 39 37 33 30 29 25 21 18 15 14 11 9 7 5 3 4 5 7 10 11 14 15 17 18 23 18 18 18 18 19 21 23 21
19 24 26 27 27 32 35 39 41 41 37 34 31 29 25 24 20 15 13 11 8 6 5 3 1 3 6 7 8 11 14 16 18 19 19 21 21 20 22 23 23 24 25
23 22 24 29 29 33 34 36 38 39 36 30 28 26 25 21 19 16 14 9 9 7 5 3 2 3 4 6 8 9 12 15 16 17 19 19 19 19 22 23 26 26 26
Wind_Direction
191 186 190 194 194 194 191 190 189 187 189 187 188 188 191 174 179 185 188 200 201 207 205 185 201 206 228 41 12 353 358 8 1 3 48 80 89 44 59 61 77 52 25
180 186 188 191 193 193 195 193 193 192 193 192 192 195 183 183 187 186 191 196 197 202 207 212 199 195 214 197 14 23 26 36 25 27 27 10 2 324 30 39 61 14 353
191 190 186 190 195 196 198 201 200 196 196 197 192 190 187 188 187 190 194 187 198 202 196 193 194 194 189 115 37 45 53 60 49 49 60 45 342 333 336 4 350 336 340
189 187 190 190 195 200 206 207 207 198 198 197 194 197 187 182 190 186 184 179 189 189 192 192 192 186 176 101 70 65 67 72 72 73 53 73 50 68 326 309 316 320 332
190 184 192 194 198 203 204 205 202 200 198 197 199 197 193 194 190 184 182 179 180 187 191 192 188 183 169 137 126 102 86 89 88 72 52 45 47 94 312 288 306 322 324
189 178 180 187 191 201 202 200 198 199 200 199 199 198 196 193 181 180 179 179 182 183 184 187 186 182 176 152 136 121 110 99 92 86 80 70 56 357 338 308 315 318 327
175 166 165 165 170 183 194 199 199 197 200 201 202 200 200 199 194 188 185 181 182 180 179 182 183 180 168 151 136 124 109 98 90 87 82 80 67 21 322 312 325 321 318
174 181 176 174 175 177 186 197 200 199 201 202 204 202 203 204 203 201 195 193 188 182 178 178 175 166 158 153 142 128 111 101 91 84 79 64 41 19 16 8 331 317 308
183 183 182 178 184 183 185 192 199 203 202 201 201 202 203 202 201 199 194 188 182 176 172 172 168 160 152 144 141 128 115 108 84 71 62 49 39 19 15 14 9 220 303
178 170 174 178 188 192 193 195 197 203 203 202 201 201 203 202 198 194 189 183 178 174 170 164 159 154 147 143 135 122 108 97 79 60 44 32 16 3 352 345 336 314 245
185 174 164 169 182 183 185 189 194 197 194 195 196 194 193 192 190 188 184 183 176 173 165 161 152 152 144 142 126 109 99 83 66 38 21 12 355 343 335 332 325 318 285
156 154 151 162 173 178 176 188 189 193 193 186 184 182 182 184 182 177 176 174 168 161 158 162 148 148 141 123 121 104 86 65 46 26 10 0 350 343 336 333 328 316 312
140 138 144 158 163 172 169 173 182 184 182 178 175 172 173 174 173 172 164 159 156 154 152 158 150 152 134 130 105 89 70 50 34 14 1 352 343 339 339 336 328 321 317
159 157 156 165 167 171 174 170 165 176 171 168 167 165 167 165 161 160 159 160 163 155 155 154 149 146 134 130 108 82 64 37 21 5 354 343 336 333 332 333 328 326 323
176 177 171 164 158 157 163 163 164 168 167 162 159 158 159 159 154 153 150 153 159 153 153 150 147 135 143 119 99 77 49 13 356 343 337 336 335 333 332 329 330 328 325
184 172 170 164 160 157 152 156 157 161 166 160 155 156 156 149 154 148 147 152 150 146 148 140 140 142 125 110 91 56 15 352 342 338 337 337 340 335 329 324 323 319 320
184 180 173 165 162 160 157 153 156 161 157 153 150 152 153 153 150 151 152 149 146 141 139 137 136 129 118 106 75 29 356 347 341 336 335 335 333 331 330 331 325 323 318
182 181 170 162 157 153 152 153 154 154 151 146 147 152 155 152 150 150 147 144 141 140 136 132 130 126 105 97 77 341 336 334 334 335 337 331 329 331 330 327 325 324 322
179 174 166 155 152 152 156 154 151 152 150 147 151 156 156 151 150 148 145 142 141 138 133 129 127 122 112 98 37 341 338 335 336 336 337 334 329 330 327 325 321 316 316
166 162 157 149 150 154 158 150 148 150 149 155 158 159 157 153 150 146 143 140 138 132 130 123 119 112 105 81 36 2 342 341 341 336 335 336 327 324 325 320 318 312 314
154 150 154 159 155 153 151 144 146 147 156 160 156 155 154 150 147 143 143 140 137 133 131 126 116 100 78 40 25 12 351 351 337 335 333 333 330 324 319 318 315 312 314
145 150 148 146 149 152 150 142 142 154 156 153 151 150 149 146 145 141 138 138 137 133 127 127 123 83 38 23 13 1 352 341 333 327 324 328 323 319 319 319 320 318 316
145 147 141 139 146 149 149 137 144 153 151 149 147 146 145 143 144 141 138 134 134 133 129 136 80 33 13 9 5 355 344 337 329 325 320 318 320 319 322 326 321 323 325
139 139 137 138 137 145 147 150 151 154 150 145 146 146 144 141 142 140 139 136 136 136 133 98 63 1 354 352 360 350 334 338 336 332 323 329 325 327 325 327 329 331 323
130 137 137 135 131 136 139 145 150 152 143 142 144 143 141 142 137 135 137 133 127 107 102 103 15 351 339 335 337 334 335 335 337 327 331 340 345 339 338 339 331 330 328
125 122 125 125 127 129 132 142 150 152 143 137 142 146 144 143 142 134 124 114 96 96 92 70 26 325 315 324 331 336 333 337 343 340 345 341 339 335 332 330 326 324 322